| time (UTC) | temp F | wind direction | speed MPH | gust MPH | rain 1hr in | rain 24hr in | rain mn in | humidity % | barometer mb |
| 20260906230252 | 81 | 59 | 1.0 | 6.0 | 0.00 | 0.00 | 0.00 | 58 | 1011.6 |
| 20260906225753 | 81 | 349 | 1.0 | 8.0 | 0.00 | 0.00 | 0.00 | 58 | 1011.6 |
| 20260906224752 | 82 | 29 | 1.0 | 6.0 | 0.00 | 0.00 | 0.00 | 56 | 1011.5 |
| 20260906224252 | 82 | 27 | 1.0 | 5.0 | 0.00 | 0.00 | 0.00 | 55 | 1011.5 |
| 20260906223752 | 82 | 109 | 1.0 | 5.0 | 0.00 | 0.00 | 0.00 | 54 | 1011.5 |
| 20260906222248 | 82 | 105 | 0.0 | 4.0 | 0.00 | 0.00 | 0.00 | 53 | 1011.4 |
| 20260906221747 | 81 | 69 | 1.0 | 8.0 | 0.00 | 0.00 | 0.00 | 52 | 1011.4 |
| 20260906221249 | 81 | 89 | 1.0 | 8.0 | 0.00 | 0.00 | 0.00 | 52 | 1011.3 |
| 20260906220748 | 81 | 84 | 1.0 | 8.0 | 0.00 | 0.00 | 0.00 | 51 | 1011.2 |
| 20260906215745 | 81 | 100 | 1.0 | 6.0 | 0.00 | 0.00 | 0.00 | 51 | 1011.2 |
| 20260906215244 | 81 | 89 | 1.0 | 6.0 | 0.00 | 0.00 | 0.00 | 51 | 1011.3 |
| 20260906214744 | 81 | 31 | 1.0 | 6.0 | 0.00 | 0.00 | 0.00 | 52 | 1011.3 |
| 20260906214243 | 81 | 91 | 1.0 | 7.0 | 0.00 | 0.00 | 0.00 | 54 | 1011.2 |
| 20260906213744 | 81 | 71 | 2.0 | 8.0 | 0.00 | 0.00 | 0.00 | 54 | 1011.2 |
| 20260906213243 | 81 | 49 | 3.0 | 10.0 | 0.00 | 0.00 | 0.00 | 54 | 1011.2 |
| 20260906212745 | 82 | 89 | 1.0 | 10.0 | 0.00 | 0.00 | 0.00 | 53 | 1011.1 |
| 20260906212245 | 82 | 85 | 2.0 | 8.0 | 0.00 | 0.00 | 0.00 | 50 | 1011.1 |
| 20260906211236 | 83 | 77 | 1.0 | 5.0 | 0.00 | 0.00 | 0.00 | 48 | 1011.2 |
| 20260906210236 | 82 | 60 | 1.0 | 8.0 | 0.00 | 0.00 | 0.00 | 48 | 1011.1 |
| 20260906205735 | 82 | 95 | 1.0 | 9.0 | 0.00 | 0.00 | 0.00 | 49 | 1011.1 |
| 20260906205237 | 82 | 83 | 1.0 | 9.0 | 0.00 | 0.00 | 0.00 | 48 | 1011.0 |
| 20260906204738 | 83 | 60 | 3.0 | 9.0 | 0.00 | 0.00 | 0.00 | 48 | 1010.9 |
| 20260906204233 | 83 | 112 | 4.0 | 11.0 | 0.00 | 0.00 | 0.00 | 47 | 1010.9 |
| 20260906203733 | 83 | 25 | 3.0 | 12.0 | 0.00 | 0.00 | 0.00 | 47 | 1010.8 |
| 20260906203231 | 82 | 55 | 2.0 | 12.0 | 0.00 | 0.00 | 0.00 | 48 | 1010.8 |
| 20260906202732 | 82 | 40 | 1.0 | 7.0 | 0.00 | 0.00 | 0.00 | 49 | 1010.8 |
| 20260906202229 | 82 | 95 | 2.0 | 7.0 | 0.00 | 0.00 | 0.00 | 49 | 1010.8 |
| 20260906201728 | 82 | 85 | 2.0 | 6.0 | 0.00 | 0.00 | 0.00 | 49 | 1010.9 |
| 20260906201227 | 82 | 104 | 3.0 | 9.0 | 0.00 | 0.00 | 0.00 | 49 | 1010.8 |
| 20260906200725 | 83 | 90 | 3.0 | 9.0 | 0.00 | 0.00 | 0.00 | 49 | 1010.9 |
| 20260906200225 | 83 | 86 | 4.0 | 12.0 | 0.00 | 0.00 | 0.00 | 48 | 1010.9 |
| 20260906195726 | 84 | 60 | 3.0 | 12.0 | 0.00 | 0.00 | 0.00 | 47 | 1010.9 |
| 20260906194726 | 85 | 241 | 1.0 | 8.0 | 0.00 | 0.00 | 0.00 | 45 | 1010.8 |
| 20260906194226 | 85 | 27 | 1.0 | 6.0 | 0.00 | 0.00 | 0.00 | 46 | 1010.8 |
| 20260906193224 | 84 | 106 | 2.0 | 11.0 | 0.00 | 0.00 | 0.00 | 45 | 1010.8 |
| 20260906192721 | 85 | 72 | 0.0 | 7.0 | 0.00 | 0.00 | 0.00 | 45 | 1010.8 |
| 20260906192221 | 85 | 163 | 1.0 | 6.0 | 0.00 | 0.00 | 0.00 | 46 | 1010.9 |
| 20260906191723 | 83 | 114 | 1.0 | 6.0 | 0.00 | 0.00 | 0.00 | 47 | 1011.0 |
| 20260906191221 | 84 | 94 | 2.0 | 10.0 | 0.00 | 0.00 | 0.00 | 45 | 1011.0 |
| 20260906190215 | 85 | 87 | 3.0 | 8.0 | 0.00 | 0.00 | 0.00 | 45 | 1011.0 |
| 20260906185713 | 85 | 330 | 1.0 | 8.0 | 0.00 | 0.00 | 0.00 | 45 | 1011.1 |
| 20260906185213 | 85 | 54 | 1.0 | 7.0 | 0.00 | 0.00 | 0.00 | 44 | 1011.2 |
| 20260906184714 | 84 | 325 | 2.0 | 7.0 | 0.00 | 0.00 | 0.00 | 44 | 1011.2 |
| 20260906184214 | 84 | 60 | 1.0 | 7.0 | 0.00 | 0.00 | 0.00 | 46 | 1011.2 |
| 20260906183714 | 84 | 40 | 2.0 | 8.0 | 0.00 | 0.00 | 0.00 | 47 | 1011.3 |
| 20260906183208 | 84 | 22 | 3.0 | 12.0 | 0.00 | 0.00 | 0.00 | 47 | 1011.4 |
| 20260906182707 | 84 | 93 | 3.0 | 12.0 | 0.00 | 0.00 | 0.00 | 48 | 1011.4 |
| 20260906182210 | 84 | 79 | 2.0 | 11.0 | 0.00 | 0.00 | 0.00 | 48 | 1011.4 |
| 20260906181708 | 84 | 65 | 1.0 | 8.0 | 0.00 | 0.00 | 0.00 | 48 | 1011.4 |
| 20260906181208 | 84 | 108 | 1.0 | 7.0 | 0.00 | 0.00 | 0.00 | 48 | 1011.4 |
| 20260906180708 | 83 | 29 | 2.0 | 9.0 | 0.00 | 0.00 | 0.00 | 49 | 1011.5 |
| 20260906175702 | 83 | 91 | 2.0 | 11.0 | 0.00 | 0.00 | 0.00 | 50 | 1011.6 |
| 20260906175202 | 83 | 90 | 3.0 | 11.0 | 0.00 | 0.00 | 0.00 | 49 | 1011.6 |
| 20260906174701 | 82 | 210 | 3.0 | 12.0 | 0.00 | 0.00 | 0.00 | 50 | 1011.7 |
| 20260906174202 | 84 | 40 | 2.0 | 12.0 | 0.00 | 0.00 | 0.00 | 48 | 1011.7 |
| 20260906173702 | 84 | 198 | 1.0 | 12.0 | 0.00 | 0.00 | 0.00 | 49 | 1011.7 |
| 20260906173201 | 83 | 125 | 1.0 | 12.0 | 0.00 | 0.00 | 0.00 | 49 | 1011.8 |
| 20260906172657 | 83 | 10 | 2.0 | 8.0 | 0.00 | 0.00 | 0.00 | 48 | 1011.8 |
| 20260906172159 | 82 | 20 | 3.0 | 11.0 | 0.00 | 0.00 | 0.00 | 49 | 1011.9 |
| 20260906171156 | 83 | 323 | 1.0 | 6.0 | 0.00 | 0.00 | 0.00 | 50 | 1011.9 |
| 20260906170658 | 82 | 94 | 3.0 | 8.0 | 0.00 | 0.00 | 0.00 | 52 | 1011.9 |
| 20260906170158 | 81 | 212 | 4.0 | 10.0 | 0.00 | 0.00 | 0.00 | 52 | 1011.9 |
| 20260906165658 | 81 | 86 | 3.0 | 10.0 | 0.00 | 0.00 | 0.00 | 51 | 1011.9 |
| 20260906165159 | 81 | 8 | 3.0 | 9.0 | 0.00 | 0.00 | 0.00 | 52 | 1011.9 |
| 20260906164657 | 81 | 92 | 3.0 | 10.0 | 0.00 | 0.00 | 0.00 | 53 | 1012.0 |
| 20260906163655 | 82 | 293 | 2.0 | 9.0 | 0.00 | 0.00 | 0.00 | 52 | 1012.0 |
| 20260906163154 | 82 | 91 | 2.0 | 9.0 | 0.00 | 0.00 | 0.00 | 53 | 1012.0 |
| 20260906162654 | 82 | 77 | 2.0 | 8.0 | 0.00 | 0.00 | 0.00 | 53 | 1012.0 |
| 20260906162154 | 82 | 92 | 2.0 | 8.0 | 0.00 | 0.00 | 0.00 | 53 | 1012.0 |
| 20260906161654 | 82 | 79 | 1.0 | 8.0 | 0.00 | 0.00 | 0.00 | 54 | 1012.1 |
| 20260906161148 | 81 | 64 | 3.0 | 9.0 | 0.00 | 0.00 | 0.00 | 55 | 1012.1 |
| 20260906160147 | 80 | 115 | 3.0 | 10.0 | 0.00 | 0.00 | 0.00 | 56 | 1012.2 |
| 20260906155647 | 80 | 156 | 3.0 | 8.0 | 0.00 | 0.00 | 0.00 | 56 | 1012.2 |
| 20260906155147 | 79 | 54 | 4.0 | 12.0 | 0.00 | 0.00 | 0.00 | 56 | 1012.2 |
| 20260906154148 | 80 | 93 | 3.0 | 9.0 | 0.00 | 0.00 | 0.00 | 57 | 1012.2 |
| 20260906153648 | 80 | 40 | 3.0 | 12.0 | 0.00 | 0.00 | 0.00 | 56 | 1012.3 |
| 20260906153145 | 80 | 72 | 3.0 | 12.0 | 0.00 | 0.00 | 0.00 | 56 | 1012.3 |
| 20260906152646 | 80 | 92 | 2.0 | 8.0 | 0.00 | 0.00 | 0.00 | 56 | 1012.4 |
| 20260906152145 | 80 | 347 | 2.0 | 8.0 | 0.00 | 0.00 | 0.00 | 58 | 1012.4 |
| 20260906151645 | 80 | 109 | 1.0 | 8.0 | 0.00 | 0.00 | 0.00 | 58 | 1012.4 |
| 20260906151145 | 79 | 67 | 2.0 | 8.0 | 0.00 | 0.00 | 0.00 | 59 | 1012.3 |
| 20260906150646 | 78 | 92 | 2.0 | 7.0 | 0.00 | 0.00 | 0.00 | 59 | 1012.3 |
| 20260906150146 | 78 | 117 | 1.0 | 7.0 | 0.00 | 0.00 | 0.00 | 60 | 1012.3 |
| 20260906145646 | 78 | 101 | 1.0 | 7.0 | 0.00 | 0.00 | 0.00 | 61 | 1012.2 |
| 20260906144638 | 77 | 93 | 3.0 | 9.0 | 0.00 | 0.00 | 0.00 | 62 | 1012.2 |
| 20260906144135 | 77 | 99 | 2.0 | 8.0 | 0.00 | 0.00 | 0.00 | 62 | 1012.2 |
| 20260906143635 | 77 | 59 | 2.0 | 8.0 | 0.00 | 0.00 | 0.00 | 62 | 1012.1 |
| 20260906143137 | 77 | 277 | 2.0 | 8.0 | 0.00 | 0.00 | 0.00 | 61 | 1012.1 |
| 20260906142634 | 77 | 73 | 2.0 | 7.0 | 0.00 | 0.00 | 0.00 | 62 | 1012.2 |
| 20260906141631 | 76 | 205 | 2.0 | 11.0 | 0.00 | 0.00 | 0.00 | 63 | 1012.1 |
| 20260906141132 | 76 | 107 | 3.0 | 11.0 | 0.00 | 0.00 | 0.00 | 63 | 1012.1 |
| 20260906140132 | 76 | 96 | 1.0 | 7.0 | 0.00 | 0.00 | 0.00 | 64 | 1012.0 |
| 20260906135631 | 75 | 215 | 1.0 | 5.0 | 0.00 | 0.00 | 0.00 | 64 | 1012.0 |
| 20260906135129 | 75 | 78 | 2.0 | 7.0 | 0.00 | 0.00 | 0.00 | 66 | 1012.0 |
| 20260906133614 | 74 | 6 | 2.0 | 9.0 | 0.00 | 0.00 | 0.00 | 68 | 1012.1 |
| 20260906133115 | 74 | 20 | 3.0 | 9.0 | 0.00 | 0.00 | 0.00 | 69 | 1012.0 |
| 20260906132615 | 74 | 54 | 3.0 | 9.0 | 0.00 | 0.00 | 0.00 | 68 | 1012.0 |
| 20260906132114 | 73 | 24 | 2.0 | 7.0 | 0.00 | 0.00 | 0.00 | 69 | 1011.9 |
| 20260906131115 | 73 | 16 | 2.0 | 7.0 | 0.00 | 0.00 | 0.00 | 71 | 1012.0 |
| 20260906130608 | 72 | 127 | 2.0 | 6.0 | 0.00 | 0.00 | 0.00 | 71 | 1011.9 |
| 20260906130107 | 72 | 104 | 1.0 | 6.0 | 0.00 | 0.00 | 0.00 | 72 | 1012.0 |
| 20260906125607 | 71 | 110 | 2.0 | 10.0 | 0.00 | 0.00 | 0.00 | 74 | 1012.0 |
| 20260906125107 | 71 | 95 | 2.0 | 10.0 | 0.00 | 0.00 | 0.00 | 73 | 1012.0 |
| 20260906124608 | 71 | 24 | 2.0 | 9.0 | 0.00 | 0.00 | 0.00 | 73 | 1012.0 |
| 20260906124108 | 71 | 34 | 3.0 | 9.0 | 0.00 | 0.00 | 0.00 | 74 | 1011.9 |
| 20260906123602 | 70 | 22 | 3.0 | 9.0 | 0.00 | 0.00 | 0.00 | 74 | 1011.9 |
| 20260906123101 | 70 | 87 | 2.0 | 8.0 | 0.00 | 0.00 | 0.00 | 75 | 1011.8 |
| 20260906122601 | 70 | 103 | 1.0 | 6.0 | 0.00 | 0.00 | 0.00 | 75 | 1011.7 |
| 20260906122059 | 70 | 19 | 1.0 | 4.0 | 0.00 | 0.00 | 0.00 | 76 | 1011.7 |
| 20260906121558 | 69 | 36 | 1.0 | 6.0 | 0.00 | 0.00 | 0.00 | 76 | 1011.7 |
| 20260906121055 | 69 | 27 | 2.0 | 8.0 | 0.00 | 0.00 | 0.00 | 77 | 1011.6 |
| 20260906120554 | 69 | 110 | 1.0 | 8.0 | 0.00 | 0.00 | 0.00 | 77 | 1011.5 |
| 20260906120055 | 68 | 70 | 0.0 | 3.0 | 0.00 | 0.00 | 0.00 | 78 | 1011.5 |
| 20260906115548 | 68 | 89 | 0.0 | 3.0 | 0.00 | 0.00 | 0.00 | 78 | 1011.5 |
| 20260906115047 | 68 | 32 | 0.0 | 3.0 | 0.00 | 0.00 | 0.00 | 79 | 1011.5 |
| 20260906114045 | 67 | 96 | 0.0 | 1.0 | 0.00 | 0.00 | 0.00 | 79 | 1011.4 |
| 20260906113543 | 67 | 92 | 0.0 | 4.0 | 0.00 | 0.00 | 0.00 | 80 | 1011.3 |
| 20260906113044 | 67 | 90 | 0.0 | 4.0 | 0.00 | 0.00 | 0.00 | 80 | 1011.3 |
| 20260906112042 | 67 | 105 | 0.0 | 1.0 | 0.00 | 0.00 | 0.00 | 81 | 1011.2 |
| 20260906111540 | 67 | 89 | 0.0 | 0.0 | 0.00 | 0.00 | 0.00 | 81 | 1011.2 |
| 20260906111040 | 67 | 83 | 0.0 | 2.0 | 0.00 | 0.00 | 0.00 | 80 | 1011.1 |
| 20260906110540 | 67 | 79 | 0.0 | 2.0 | 0.00 | 0.00 | 0.00 | 80 | 1011.1 |
| 20260906105538 | 67 | 56 | 0.0 | 2.0 | 0.00 | 0.00 | 0.00 | 80 | 1011.0 |
| 20260906105040 | 67 | 50 | 0.0 | 2.0 | 0.00 | 0.00 | 0.00 | 80 | 1010.9 |
| 20260906104537 | 67 | 105 | 0.0 | 2.0 | 0.00 | 0.00 | 0.00 | 80 | 1010.8 |
| 20260906104034 | 67 | 89 | 0.0 | 2.0 | 0.00 | 0.00 | 0.00 | 79 | 1010.7 |
| 20260906103036 | 67 | 84 | 0.0 | 1.0 | 0.00 | 0.00 | 0.00 | 79 | 1010.6 |
| 20260906102035 | 67 | 48 | 0.0 | 1.0 | 0.00 | 0.00 | 0.00 | 78 | 1010.4 |
| 20260906101528 | 67 | 71 | 0.0 | 3.0 | 0.00 | 0.00 | 0.00 | 78 | 1010.3 |
| 20260906101030 | 67 | 36 | 0.0 | 3.0 | 0.00 | 0.00 | 0.00 | 78 | 1010.3 |
| 20260906100527 | 68 | 104 | 0.0 | 2.0 | 0.00 | 0.00 | 0.00 | 78 | 1010.2 |
| 20260906100029 | 68 | 80 | 0.0 | 1.0 | 0.00 | 0.00 | 0.00 | 78 | 1010.2 |
| 20260906095528 | 68 | 5 | 0.0 | 1.0 | 0.00 | 0.00 | 0.00 | 78 | 1010.1 |
| 20260906095029 | 68 | 96 | 0.0 | 2.0 | 0.00 | 0.00 | 0.00 | 77 | 1010.1 |
| 20260906094525 | 68 | 115 | 0.0 | 2.0 | 0.00 | 0.00 | 0.00 | 78 | 1010.0 |
| 20260906094026 | 68 | 95 | 0.0 | 2.0 | 0.00 | 0.00 | 0.00 | 78 | 1010.0 |
| 20260906093525 | 67 | 62 | 0.0 | 2.0 | 0.00 | 0.00 | 0.00 | 78 | 1010.1 |
| 20260906092525 | 68 | 89 | 0.0 | 3.0 | 0.00 | 0.00 | 0.00 | 77 | 1009.9 |
| 20260906092024 | 68 | 46 | 0.0 | 2.0 | 0.00 | 0.00 | 0.00 | 76 | 1009.8 |
| 20260906091021 | 69 | 95 | 0.0 | 4.0 | 0.00 | 0.00 | 0.00 | 76 | 1009.7 |
| 20260906090522 | 69 | 101 | 0.0 | 4.0 | 0.00 | 0.00 | 0.00 | 75 | 1009.5 |
| 20260906090022 | 69 | 36 | 1.0 | 4.0 | 0.00 | 0.00 | 0.00 | 75 | 1009.6 |
| 20260906085521 | 69 | 77 | 2.0 | 7.0 | 0.00 | 0.00 | 0.00 | 75 | 1009.6 |
| 20260906085022 | 69 | 22 | 1.0 | 7.0 | 0.00 | 0.00 | 0.00 | 75 | 1009.5 |
| 20260906084023 | 69 | 84 | 1.0 | 5.0 | 0.00 | 0.00 | 0.00 | 74 | 1009.4 |
| 20260906083519 | 69 | 30 | 1.0 | 4.0 | 0.00 | 0.00 | 0.00 | 74 | 1009.4 |
| 20260906082520 | 69 | 12 | 1.0 | 6.0 | 0.00 | 0.00 | 0.00 | 74 | 1009.4 |
| 20260906082019 | 69 | 107 | 1.0 | 6.0 | 0.00 | 0.00 | 0.00 | 74 | 1009.4 |
| 20260906081020 | 70 | 5 | 1.0 | 6.0 | 0.00 | 0.00 | 0.00 | 74 | 1009.4 |
| 20260906080520 | 70 | 25 | 1.0 | 6.0 | 0.00 | 0.00 | 0.00 | 74 | 1009.3 |
| 20260906080018 | 70 | 12 | 2.0 | 6.0 | 0.00 | 0.00 | 0.00 | 74 | 1009.3 |
| 20260906075518 | 70 | 82 | 1.0 | 6.0 | 0.00 | 0.00 | 0.00 | 74 | 1009.3 |
| 20260906075018 | 70 | 13 | 1.0 | 5.0 | 0.00 | 0.00 | 0.00 | 74 | 1009.3 |
| 20260906074516 | 70 | 11 | 0.0 | 4.0 | 0.00 | 0.00 | 0.00 | 74 | 1009.2 |
| 20260906074018 | 70 | 68 | 0.0 | 2.0 | 0.00 | 0.00 | 0.00 | 73 | 1009.2 |
| 20260906073516 | 70 | 94 | 0.0 | 3.0 | 0.00 | 0.00 | 0.00 | 73 | 1009.2 |
| 20260906072514 | 70 | 79 | 2.0 | 6.0 | 0.00 | 0.00 | 0.00 | 73 | 1009.2 |
| 20260906072010 | 70 | 55 | 2.0 | 6.0 | 0.00 | 0.00 | 0.00 | 72 | 1009.2 |
| 20260906071012 | 70 | 45 | 1.0 | 3.0 | 0.00 | 0.00 | 0.00 | 73 | 1009.2 |
| 20260906070509 | 70 | 99 | 1.0 | 2.0 | 0.00 | 0.00 | 0.00 | 73 | 1009.2 |
| 20260906070012 | 71 | 93 | 0.0 | 3.0 | 0.00 | 0.00 | 0.00 | 72 | 1009.2 |
| 20260906065507 | 71 | 102 | 1.0 | 5.0 | 0.00 | 0.00 | 0.00 | 73 | 1009.2 |
| 20260906065005 | 71 | 75 | 2.0 | 5.0 | 0.00 | 0.00 | 0.00 | 72 | 1009.2 |
| 20260906064505 | 71 | 86 | 1.0 | 6.0 | 0.00 | 0.00 | 0.00 | 72 | 1009.1 |
| 20260906064005 | 71 | 83 | 1.0 | 6.0 | 0.00 | 0.00 | 0.00 | 72 | 1009.1 |
| 20260906063004 | 71 | 89 | 1.0 | 6.0 | 0.00 | 0.00 | 0.00 | 72 | 1009.3 |
| 20260906062456 | 71 | 86 | 1.0 | 6.0 | 0.00 | 0.00 | 0.00 | 73 | 1009.3 |
| 20260906061457 | 71 | 44 | 0.0 | 1.0 | 0.00 | 0.00 | 0.00 | 74 | 1009.3 |
| 20260906060955 | 71 | 96 | 0.0 | 1.0 | 0.00 | 0.00 | 0.00 | 74 | 1009.3 |
| 20260906060453 | 71 | 96 | 0.0 | 1.0 | 0.00 | 0.00 | 0.00 | 73 | 1009.3 |
| 20260906055451 | 72 | 96 | 0.0 | 2.0 | 0.00 | 0.00 | 0.00 | 72 | 1009.2 |
| 20260906054948 | 72 | 93 | 0.0 | 2.0 | 0.00 | 0.00 | 0.00 | 71 | 1009.1 |
| 20260906054444 | 73 | 40 | 0.0 | 1.0 | 0.00 | 0.00 | 0.00 | 70 | 1009.1 |
| 20260906053936 | 73 | 69 | 0.0 | 5.0 | 0.00 | 0.00 | 0.00 | 69 | 1009.1 |
| 20260906052938 | 73 | 87 | 1.0 | 5.0 | 0.00 | 0.00 | 0.00 | 69 | 1009.2 |
| 20260906052438 | 73 | 70 | 1.0 | 5.0 | 0.00 | 0.00 | 0.00 | 68 | 1009.2 |
| 20260906051937 | 73 | 36 | 0.0 | 4.0 | 0.00 | 0.00 | 0.00 | 68 | 1009.3 |
| 20260906051436 | 74 | 101 | 0.0 | 3.0 | 0.00 | 0.00 | 0.00 | 68 | 1009.4 |
| 20260906050938 | 74 | 57 | 0.0 | 3.0 | 0.00 | 0.00 | 0.00 | 67 | 1009.4 |
| 20260906050437 | 74 | 358 | 0.0 | 3.0 | 0.00 | 0.00 | 0.00 | 67 | 1009.3 |
| 20260906045938 | 74 | 58 | 0.0 | 3.0 | 0.00 | 0.00 | 0.00 | 67 | 1009.5 |
| 20260906045434 | 74 | 19 | 0.0 | 0.0 | 0.00 | 0.00 | 0.00 | 68 | 1009.5 |
| 20260906044935 | 74 | 19 | 0.0 | 0.0 | 0.00 | 0.00 | 0.00 | 68 | 1009.5 |
| 20260906044434 | 74 | 18 | 0.0 | 2.0 | 0.00 | 0.00 | 0.00 | 67 | 1009.5 |
| 20260906043933 | 74 | 32 | 0.0 | 2.0 | 0.00 | 0.00 | 0.00 | 67 | 1009.6 |
| 20260906043435 | 74 | 97 | 0.0 | 2.0 | 0.00 | 0.00 | 0.00 | 67 | 1009.7 |
| 20260906042933 | 75 | 27 | 0.0 | 2.0 | 0.00 | 0.00 | 0.00 | 67 | 1009.6 |
| 20260906042432 | 75 | 95 | 0.0 | 1.0 | 0.00 | 0.00 | 0.00 | 67 | 1009.7 |
| 20260906041931 | 75 | 44 | 0.0 | 3.0 | 0.00 | 0.00 | 0.00 | 67 | 1009.6 |
| 20260906040931 | 75 | 353 | 0.0 | 2.0 | 0.00 | 0.00 | 0.00 | 66 | 1009.6 |
| 20260906035429 | 76 | 64 | 0.0 | 4.0 | 0.00 | 0.00 | 0.00 | 65 | 1009.5 |
| 20260906034927 | 76 | 95 | 0.0 | 2.0 | 0.00 | 0.00 | 0.00 | 64 | 1009.5 |
| 20260906033920 | 76 | 60 | 0.0 | 2.0 | 0.00 | 0.00 | 0.00 | 64 | 1009.5 |
| 20260906031918 | 76 | 37 | 1.0 | 4.0 | 0.00 | 0.00 | 0.00 | 65 | 1009.6 |
| 20260906031417 | 76 | 30 | 0.0 | 3.0 | 0.00 | 0.00 | 0.00 | 66 | 1009.6 |
| 20260906030917 | 76 | 6 | 0.0 | 0.0 | 0.00 | 0.00 | 0.00 | 67 | 1009.6 |
| 20260906030411 | 76 | 6 | 0.0 | 0.0 | 0.00 | 0.00 | 0.00 | 66 | 1009.6 |
| 20260906025905 | 76 | 6 | 0.0 | 0.0 | 0.00 | 0.00 | 0.00 | 66 | 1009.6 |
| 20260906024858 | 77 | 107 | 0.0 | 3.0 | 0.00 | 0.00 | 0.00 | 65 | 1009.4 |
| 20260906024358 | 77 | 95 | 0.0 | 3.0 | 0.00 | 0.00 | 0.00 | 65 | 1009.5 |
| 20260906023858 | 77 | 91 | 1.0 | 3.0 | 0.00 | 0.00 | 0.00 | 64 | 1009.5 |
| 20260906023400 | 77 | 101 | 1.0 | 3.0 | 0.00 | 0.00 | 0.00 | 64 | 1009.5 |
| 20260906022355 | 77 | 96 | 0.0 | 3.0 | 0.00 | 0.00 | 0.00 | 63 | 1009.4 |
| 20260906021856 | 78 | 91 | 0.0 | 4.0 | 0.00 | 0.00 | 0.00 | 63 | 1009.4 |
| 20260906021355 | 78 | 86 | 1.0 | 4.0 | 0.00 | 0.00 | 0.00 | 63 | 1009.3 |
| 20260906020857 | 78 | 98 | 0.0 | 3.0 | 0.00 | 0.00 | 0.00 | 63 | 1009.4 |
| 20260906020357 | 78 | 86 | 0.0 | 2.0 | 0.00 | 0.00 | 0.00 | 64 | 1009.5 |
| 20260906015852 | 78 | 94 | 0.0 | 2.0 | 0.00 | 0.00 | 0.00 | 64 | 1009.4 |
| 20260906015352 | 78 | 30 | 0.0 | 3.0 | 0.00 | 0.00 | 0.00 | 64 | 1009.3 |
| 20260906014852 | 78 | 33 | 1.0 | 4.0 | 0.00 | 0.00 | 0.00 | 64 | 1009.3 |
| 20260906014352 | 78 | 46 | 1.0 | 5.0 | 0.00 | 0.00 | 0.00 | 64 | 1009.3 |
| 20260906013853 | 78 | 115 | 1.0 | 5.0 | 0.00 | 0.00 | 0.00 | 64 | 1009.1 |
| 20260906012853 | 78 | 85 | 1.0 | 6.0 | 0.00 | 0.00 | 0.00 | 67 | 1009.0 |
| 20260906012351 | 78 | 97 | 0.0 | 0.0 | 0.00 | 0.00 | 0.00 | 70 | 1009.0 |
| 20260906011851 | 78 | 91 | 0.0 | 1.0 | 0.00 | 0.00 | 0.00 | 71 | 1008.9 |
| 20260906010854 | 78 | 120 | 0.0 | 3.0 | 0.00 | 0.00 | 0.00 | 71 | 1008.8 |
| 20260906005853 | 78 | 98 | 0.0 | 3.0 | 0.00 | 0.00 | 0.00 | 73 | 1008.7 |
| 20260906005351 | 78 | 99 | 0.0 | 3.0 | 0.00 | 0.00 | 0.00 | 73 | 1008.7 |
| 20260906004852 | 78 | 84 | 0.0 | 3.0 | 0.00 | 0.00 | 0.00 | 73 | 1008.7 |
| 20260906003853 | 78 | 83 | 0.0 | 1.0 | 0.00 | 0.00 | 0.00 | 72 | 1008.5 |
| 20260906003352 | 78 | 69 | 0.0 | 1.0 | 0.00 | 0.00 | 0.00 | 72 | 1008.5 |
| 20260906002853 | 78 | 208 | 0.0 | 0.0 | 0.00 | 0.00 | 0.00 | 72 | 1008.4 |
| 20260906002353 | 78 | 204 | 0.0 | 1.0 | 0.00 | 0.00 | 0.00 | 72 | 1008.5 |
| 20260906000849 | 79 | 208 | 0.0 | 3.0 | 0.00 | 0.00 | 0.00 | 71 | 1008.3 |
| 20260906000348 | 79 | 191 | 1.0 | 4.0 | 0.00 | 0.00 | 0.00 | 71 | 1008.3 |
| 20260905235848 | 80 | 155 | 2.0 | 5.0 | 0.00 | 0.00 | 0.00 | 70 | 1008.3 |
| 20260905235348 | 80 | 66 | 2.0 | 6.0 | 0.00 | 0.00 | 0.00 | 67 | 1008.2 |
| 20260905234848 | 81 | 32 | 2.0 | 7.0 | 0.00 | 0.00 | 0.00 | 63 | 1008.1 |
| 20260905234344 | 81 | 342 | 2.0 | 7.0 | 0.00 | 0.00 | 0.00 | 62 | 1008.0 |
| 20260905233345 | 81 | 33 | 1.0 | 6.0 | 0.00 | 0.00 | 0.00 | 62 | 1007.9 |
| 20260905232844 | 81 | 36 | 2.0 | 9.0 | 0.00 | 0.00 | 0.00 | 62 | 1007.8 |
| 20260905232345 | 81 | 79 | 3.0 | 9.0 | 0.00 | 0.00 | 0.00 | 61 | 1007.8 |
| 20260905231846 | 81 | 89 | 1.0 | 7.0 | 0.00 | 0.00 | 0.00 | 62 | 1007.8 |
| 20260905231344 | 81 | 52 | 1.0 | 5.0 | 0.00 | 0.00 | 0.00 | 63 | 1007.8 |
| 20260905230844 | 81 | 90 | 1.0 | 6.0 | 0.00 | 0.00 | 0.00 | 62 | 1007.7 |